TimeHST,TemperatureF,Dew PointF,Humidity,Sea Level PressureIn,VisibilityMPH,Wind Direction,Wind SpeedMPH,Gust SpeedMPH,PrecipitationIn,Events,Conditions,WindDirDegrees,DateUTC
12:54 AM,63.0,59.0,87,29.91,10.0,South,3.5,-,N/A,,Partly Cloudy,190,2013-01-17 10:54:00
2:54 AM,60.1,57.0,90,29.89,10.0,SSE,4.6,-,N/A,,Clear,160,2013-01-17 12:54:00
3:54 AM,60.1,57.0,90,29.88,10.0,South,3.5,-,N/A,,Clear,170,2013-01-17 13:54:00
4:54 AM,62.1,57.9,86,29.88,10.0,South,5.8,-,N/A,,Partly Cloudy,180,2013-01-17 14:54:00
5:54 AM,60.1,57.0,90,29.89,10.0,SE,6.9,-,N/A,,Clear,140,2013-01-17 15:54:00
6:54 AM,61.0,57.0,87,29.90,10.0,SE,5.8,-,N/A,,Scattered Clouds,140,2013-01-17 16:54:00
7:54 AM,63.0,59.0,87,29.92,10.0,Calm,Calm,-,N/A,,Clear,0,2013-01-17 17:54:00
8:54 AM,70.0,63.0,78,29.94,10.0,South,3.5,-,N/A,,Partly Cloudy,170,2013-01-17 18:54:00
9:54 AM,73.9,62.1,66,29.94,10.0,NE,3.5,-,N/A,,Partly Cloudy,40,2013-01-17 19:54:00
10:54 AM,75.9,62.1,62,29.93,10.0,North,8.1,-,N/A,,Scattered Clouds,350,2013-01-17 20:54:00
11:54 AM,77.0,62.1,60,29.91,10.0,NNW,8.1,-,N/A,,Scattered Clouds,340,2013-01-17 21:54:00
12:54 PM,77.0,62.1,60,29.88,10.0,North,6.9,-,N/A,,Scattered Clouds,350,2013-01-17 22:54:00
1:54 PM,75.9,62.1,62,29.86,10.0,North,10.4,-,N/A,,Scattered Clouds,10,2013-01-17 23:54:00
2:54 PM,75.9,62.1,62,29.85,10.0,North,10.4,-,N/A,,Scattered Clouds,350,2013-01-18 00:54:00
3:54 PM,73.0,63.0,71,29.86,10.0,NNW,9.2,-,N/A,,Scattered Clouds,340,2013-01-18 01:54:00
4:54 PM,73.0,62.1,68,29.88,10.0,NNE,4.6,-,N/A,,Mostly Cloudy,30,2013-01-18 02:54:00
5:54 PM,72.0,61.0,68,29.90,10.0,NNW,5.8,-,N/A,,Scattered Clouds,340,2013-01-18 03:54:00
6:54 PM,72.0,61.0,68,29.92,10.0,Calm,Calm,-,N/A,,Mostly Cloudy,0,2013-01-18 04:54:00
7:54 PM,71.1,62.1,73,29.93,10.0,SE,3.5,-,N/A,,Mostly Cloudy,130,2013-01-18 05:54:00
8:54 PM,69.1,62.1,78,29.93,10.0,Calm,Calm,-,N/A,,Scattered Clouds,0,2013-01-18 06:54:00
9:54 PM,68.0,62.1,81,29.93,10.0,NW,6.9,-,N/A,,Mostly Cloudy,320,2013-01-18 07:54:00
10:54 PM,64.9,61.0,87,29.92,10.0,Calm,Calm,-,N/A,,Scattered Clouds,0,2013-01-18 08:54:00
11:54 PM,64.9,61.0,87,29.92,10.0,SE,4.6,-,N/A,,Scattered Clouds,140,2013-01-18 09:54:00